Tracking 25963 objects as of 12-Aug-2022
HD Live streaming from Space Station
objects crossing your sky now

IRIDIUM 38

Track IRIDIUM 38 now!
10-day predictions
IRIDIUM 38 is classified as:


NORAD ID: 25043
Int'l Code: 1997-069E
Perigee: 776.9 km
Apogee: 778.1 km
Inclination: 86.4 °
Period: 100.2 minutes
Semi major axis: 7148 km
RCS: 5.0293 m2 (large)
Launch date: November 9, 1997
Source: United States (US)
Launch site: AIR FORCE WESTERN TEST RANGE (AFWTR)
aabbcc
Your satellite tracking list
Your tracking list is empty




NASA's NSSDC Master Catalog

Two Line Element Set (TLE):
1 25043U 97069E   22224.22568880  .00000205  00000-0  63109-4 0  9996
2 25043  86.3976 309.9679 0000801 114.1246 246.0035 14.36419724296857
Source of the keplerian elements: AFSPC